User: anonymous   Login
Location: Griffin Ranch
(33.6186°N, 110.6622°W)
Time: 07:10:01
(UTC-07:00)
Language:

Cosmos 1812 - Orbit

View from above orbital plane
View from above orbital plane
View from above satellite
View from above satellite

Ground track
Ground track

The orbit data is extracted from the following two-line orbital elements,

1 17295U 87003A   15244.12683552  .00002303  00000-0  13051-3 0  9991
2 17295  82.5127  68.6869 0002482 208.9270 151.1824 15.12548724559862
Epoch (UTC): 01 September 2015 03:02:38
Eccentricity: 0.0002482
inclination: 82.5127°
perigee height: 527 km
apogee height: 530 km
right ascension of ascending node: 68.6869°
argument of perigee: 208.9270°
revolutions per day: 15.12548724
mean anomaly at epoch: 151.1824°
orbit number at epoch: 55986

The dashed part of the orbit path shows where the satellite is in the earth's shadow,  

DLR